sat.trackr.live / text

‹ back to catalog

STARLINK-37815

NORAD 69434 · 2026-126Q

PAYLOAD ACTIVE UNKNOWN

§ Identity

Operator
Country
US
Launch date
2026-06-07
Launch site
AFWTR
Launch vehicle
Mass (kg)
RCS (m²)

Purposes: comms

External: N2YO · Heavens-Above · Gunter

§ Orbital elements

Epoch: 2026-09-20T03:05:18.206016Z

Period
93.91 min
Inclination
97.2850°
Eccentricity
0.0001668
Mean motion
15.33440845 rev/d
Perigee alt
464.4 km
Apogee alt
466.7 km
Semi-major
6,843.7 km
B*
1.8463e-4
RAAN
124.3100°
Arg perigee
94.1109°
Mean anomaly
266.0325°
Rev number
1,746

§ Raw data

STARLINK-378151 69434U 26126Q   26263.12868294  .00005889  00000+0  18463-3 0  99962 69434  97.2850 124.3100 0001668  94.1109 266.0325 15.33440845 17464

JSON: /api/v1/satellites/69434 · /tle

For live sub-satellite position, see the globe view (requires WebGL).

§ Visibility from observer

Set your observer location to see the next 7 days of passes ≥ 10°. The values pass through the URL so the page stays shareable.

No JS? Fill the form by hand. The geolocation button needs JavaScript.